QPF
0.01 0.04 0.04 0.04 0.04 0.02 0.00 0.00 0.00 0.00 0.00 0.00 0.00 0.00 0.00 0.00 0.00 0.00 0.00 0.00 0.00 0.00 0.00 0.00 0.00 0.00 0.00 0.00 0.00 0.00 0.00 0.00 0.01 0.00 0.00 0.00 0.00 0.00 0.00 0.00 0.00 0.00 0.02
0.04 0.13 0.10 0.06 0.05 0.02 0.00 0.00 0.00 0.00 0.00 0.00 0.00 0.00 0.00 0.00 0.00 0.00 0.00 0.00 0.00 0.00 0.00 0.00 0.00 0.00 0.00 0.00 0.00 0.00 0.00 0.00 0.00 0.00 0.00 0.00 0.00 0.00 0.00 0.00 0.00 0.00 0.00
0.07 0.10 0.06 0.04 0.02 0.00 0.00 0.00 0.00 0.00 0.00 0.00 0.00 0.00 0.00 0.00 0.00 0.00 0.00 0.00 0.00 0.00 0.00 0.00 0.00 0.00 0.00 0.00 0.00 0.00 0.00 0.00 0.00 0.00 0.00 0.00 0.00 0.00 0.00 0.00 0.01 0.01 0.00
0.07 0.09 0.06 0.03 0.01 0.00 0.00 0.00 0.00 0.00 0.00 0.00 0.00 0.00 0.00 0.00 0.00 0.00 0.00 0.00 0.00 0.00 0.00 0.00 0.00 0.00 0.00 0.00 0.00 0.00 0.00 0.00 0.01 0.01 0.00 0.01 0.01 0.01 0.02 0.00 0.00 0.00 0.00
0.09 0.09 0.06 0.04 0.03 0.01 0.00 0.00 0.00 0.00 0.00 0.00 0.00 0.00 0.00 0.00 0.00 0.00 0.00 0.00 0.00 0.00 0.00 0.00 0.00 0.00 0.01 0.01 0.01 0.00 0.00 0.00 0.01 0.01 0.01 0.02 0.01 0.02 0.02 0.02 0.01 0.00 0.00
0.06 0.06 0.05 0.06 0.03 0.01 0.00 0.00 0.00 0.00 0.00 0.00 0.00 0.00 0.00 0.00 0.00 0.00 0.00 0.00 0.00 0.00 0.00 0.00 0.00 0.00 0.00 0.00 0.00 0.00 0.00 0.00 0.00 0.01 0.01 0.02 0.02 0.02 0.02 0.04 0.07 0.05 0.00
0.02 0.02 0.01 0.01 0.01 0.00 0.00 0.00 0.00 0.00 0.00 0.00 0.00 0.00 0.00 0.00 0.00 0.00 0.00 0.00 0.00 0.00 0.00 0.00 0.00 0.00 0.00 0.00 0.00 0.00 0.00 0.00 0.00 0.00 0.00 0.01 0.02 0.01 0.05 0.05 0.04 0.02 0.02
0.00 0.00 0.00 0.01 0.00 0.00 0.00 0.00 0.00 0.00 0.00 0.00 0.00 0.00 0.00 0.00 0.00 0.00 0.00 0.00 0.00 0.00 0.00 0.00 0.00 0.00 0.00 0.01 0.00 0.00 0.00 0.00 0.00 0.00 0.00 0.00 0.00 0.01 0.03 0.05 0.07 0.04 0.09
0.01 0.01 0.01 0.02 0.00 0.00 0.00 0.00 0.00 0.00 0.00 0.00 0.00 0.00 0.00 0.00 0.00 0.00 0.00 0.00 0.00 0.00 0.00 0.00 0.00 0.00 0.02 0.04 0.01 0.00 0.01 0.02 0.01 0.01 0.00 0.01 0.00 0.03 0.15 0.16 0.08 0.09 0.11
0.01 0.02 0.03 0.02 0.00 0.00 0.00 0.00 0.00 0.00 0.00 0.00 0.00 0.00 0.00 0.00 0.00 0.00 0.00 0.00 0.00 0.00 0.00 0.00 0.00 0.00 0.01 0.03 0.02 0.06 0.11 0.07 0.05 0.04 0.05 0.02 0.00 0.01 0.06 0.06 0.19 0.21 0.14
0.02 0.03 0.02 0.00 0.00 0.00 0.00 0.00 0.00 0.00 0.00 0.02 0.01 0.00 0.00 0.00 0.00 0.00 0.00 0.00 0.00 0.00 0.00 0.00 0.00 0.00 0.00 0.02 0.06 0.11 0.16 0.16 0.20 0.16 0.08 0.08 0.05 0.07 0.07 0.12 0.18 0.14 0.12
0.04 0.05 0.04 0.01 0.00 0.00 0.00 0.00 0.00 0.01 0.02 0.02 0.02 0.01 0.00 0.00 0.00 0.00 0.00 0.00 0.00 0.00 0.01 0.00 0.00 0.00 0.00 0.00 0.01 0.05 0.11 0.12 0.12 0.14 0.11 0.09 0.12 0.12 0.13 0.17 0.17 0.18 0.13
0.12 0.08 0.04 0.02 0.00 0.01 0.00 0.00 0.00 0.02 0.02 0.03 0.03 0.00 0.00 0.00 0.00 0.00 0.00 0.00 0.00 0.00 0.01 0.01 0.01 0.00 0.00 0.00 0.00 0.00 0.01 0.05 0.06 0.04 0.05 0.07 0.13 0.18 0.18 0.18 0.20 0.23 0.15
0.04 0.03 0.05 0.01 0.00 0.00 0.00 0.00 0.00 0.02 0.08 0.07 0.01 0.00 0.00 0.00 0.00 0.00 0.00 0.00 0.00 0.00 0.00 0.01 0.00 0.00 0.00 0.00 0.00 0.00 0.00 0.00 0.01 0.02 0.04 0.05 0.05 0.07 0.07 0.09 0.07 0.05 0.07
0.01 0.03 0.01 0.01 0.00 0.00 0.00 0.00 0.03 0.03 0.03 0.02 0.00 0.00 0.00 0.00 0.00 0.00 0.00 0.00 0.00 0.00 0.00 0.00 0.00 0.00 0.00 0.00 0.00 0.00 0.00 0.00 0.00 0.00 0.00 0.00 0.00 0.01 0.00 0.00 0.00 0.00 0.00
0.02 0.01 0.02 0.01 0.00 0.00 0.00 0.01 0.07 0.06 0.05 0.05 0.01 0.00 0.00 0.00 0.00 0.00 0.00 0.00 0.00 0.00 0.00 0.00 0.00 0.00 0.00 0.00 0.00 0.00 0.00 0.00 0.00 0.00 0.00 0.00 0.00 0.00 0.00 0.00 0.00 0.00 0.00
0.00 0.00 0.00 0.00 0.00 0.00 0.00 0.01 0.02 0.03 0.05 0.02 0.00 0.00 0.00 0.00 0.00 0.00 0.00 0.00 0.00 0.00 0.00 0.00 0.00 0.00 0.00 0.00 0.00 0.00 0.00 0.00 0.00 0.00 0.00 0.00 0.00 0.00 0.00 0.00 0.00 0.00 0.00
0.01 0.00 0.00 0.00 0.00 0.01 0.01 0.02 0.01 0.02 0.03 0.01 0.00 0.00 0.00 0.00 0.00 0.00 0.00 0.00 0.00 0.00 0.00 0.00 0.00 0.00 0.00 0.00 0.00 0.00 0.00 0.00 0.00 0.00 0.00 0.00 0.00 0.00 0.00 0.00 0.00 0.00 0.00
0.00 0.00 0.01 0.04 0.01 0.00 0.01 0.01 0.01 0.01 0.01 0.01 0.00 0.00 0.00 0.00 0.00 0.00 0.00 0.00 0.00 0.00 0.00 0.00 0.00 0.00 0.00 0.00 0.00 0.00 0.00 0.00 0.00 0.00 0.00 0.00 0.00 0.00 0.00 0.00 0.00 0.00 0.00
0.02 0.02 0.03 0.04 0.02 0.01 0.01 0.01 0.00 0.00 0.00 0.00 0.00 0.00 0.00 0.00 0.00 0.00 0.00 0.00 0.00 0.00 0.00 0.00 0.00 0.00 0.00 0.00 0.00 0.00 0.00 0.00 0.00 0.00 0.00 0.00 0.00 0.00 0.00 0.00 0.00 0.00 0.00
0.00 0.00 0.00 0.00 0.00 0.01 0.01 0.00 0.00 0.00 0.00 0.01 0.00 0.00 0.00 0.00 0.00 0.00 0.00 0.00 0.00 0.00 0.00 0.00 0.00 0.00 0.00 0.00 0.00 0.00 0.00 0.00 0.00 0.00 0.00 0.00 0.00 0.00 0.00 0.00 0.00 0.00 0.00
0.00 0.00 0.00 0.00 0.00 0.00 0.00 0.00 0.00 0.00 0.00 0.00 0.00 0.00 0.00 0.00 0.00 0.00 0.00 0.00 0.00 0.00 0.00 0.00 0.00 0.00 0.00 0.00 0.00 0.00 0.00 0.00 0.00 0.00 0.00 0.00 0.00 0.00 0.00 0.00 0.00 0.00 0.00
0.00 0.00 0.00 0.00 0.00 0.00 0.00 0.00 0.00 0.01 0.00 0.00 0.00 0.00 0.00 0.00 0.00 0.00 0.00 0.00 0.00 0.00 0.00 0.00 0.00 0.00 0.00 0.00 0.00 0.00 0.00 0.00 0.00 0.00 0.00 0.00 0.00 0.00 0.00 0.00 0.00 0.00 0.00
0.00 0.00 0.00 0.00 0.00 0.00 0.00 0.01 0.00 0.00 0.00 0.00 0.00 0.00 0.00 0.00 0.00 0.00 0.00 0.00 0.00 0.00 0.00 0.00 0.00 0.00 0.00 0.00 0.00 0.00 0.00 0.00 0.00 0.00 0.00 0.00 0.00 0.00 0.00 0.00 0.00 0.00 0.00
0.00 0.00 0.00 0.00 0.00 0.00 0.00 0.00 0.00 0.00 0.00 0.00 0.00 0.00 0.00 0.00 0.00 0.00 0.00 0.00 0.00 0.00 0.00 0.00 0.00 0.00 0.00 0.00 0.00 0.00 0.00 0.00 0.00 0.00 0.00 0.00 0.00 0.00 0.00 0.00 0.00 0.00 0.00
0.00 0.00 0.00 0.00 0.00 0.00 0.00 0.00 0.00 0.00 0.00 0.00 0.00 0.00 0.00 0.00 0.00 0.00 0.00 0.00 0.00 0.00 0.00 0.00 0.00 0.00 0.00 0.00 0.00 0.00 0.00 0.00 0.00 0.00 0.00 0.00 0.00 0.00 0.00 0.00 0.00 0.00 0.00
MSLP
1011.98 1012.87 1013.49 1014.14 1014.46 1015.00 1015.51 1015.98 1016.34 1016.66 1016.72 1016.60 1016.50 1016.46 1016.34 1016.24 1016.07 1015.96 1015.77 1015.55 1015.40 1015.28 1014.96 1014.67 1014.18 1013.38 1012.53 1011.89 1011.47 1011.02 1010.72 1010.64 1009.71 1007.10 1007.73 1007.76 1007.82 1007.80 1007.51 1007.24 1007.15 1007.08 1007.10
1011.41 1012.81 1013.50 1013.72 1014.46 1015.02 1015.34 1015.51 1015.84 1016.22 1016.35 1016.12 1015.88 1016.25 1016.70 1016.40 1016.06 1015.88 1015.96 1015.84 1015.58 1015.16 1014.54 1014.02 1013.30 1012.44 1011.86 1011.15 1010.42 1009.71 1009.35 1009.06 1008.58 1007.49 1006.63 1006.81 1006.77 1006.75 1006.57 1006.41 1006.26 1006.08 1006.28
1011.18 1012.37 1013.51 1013.91 1014.34 1014.70 1015.24 1015.23 1015.46 1015.72 1015.85 1015.87 1016.15 1015.13 1016.28 1016.11 1015.75 1015.76 1015.79 1015.65 1015.44 1015.00 1014.19 1013.34 1012.42 1011.76 1010.65 1009.80 1009.00 1008.30 1007.94 1007.73 1007.39 1007.01 1005.59 1006.26 1006.14 1006.04 1005.75 1005.46 1005.42 1005.44 1005.14
1011.24 1012.45 1013.50 1014.01 1014.17 1014.64 1014.95 1014.90 1015.06 1015.27 1015.40 1015.52 1015.52 1015.63 1015.66 1015.57 1015.48 1015.52 1015.50 1015.25 1014.78 1014.00 1013.18 1012.49 1011.46 1010.38 1009.26 1008.17 1007.44 1006.81 1006.41 1006.27 1006.22 1006.27 1005.53 1005.42 1005.52 1005.00 1004.73 1004.75 1004.97 1004.90 1004.68
1011.60 1012.60 1013.49 1013.91 1014.38 1014.80 1015.03 1014.81 1014.76 1014.93 1015.09 1015.21 1015.54 1015.37 1015.43 1015.46 1015.55 1015.43 1015.22 1014.82 1014.06 1013.24 1012.52 1011.42 1010.17 1008.80 1007.64 1006.69 1005.85 1005.02 1004.81 1004.74 1004.78 1004.88 1004.66 1004.56 1004.48 1004.26 1003.42 1003.86 1004.13 1004.08 1003.85
1011.96 1012.95 1013.39 1013.69 1014.15 1014.30 1014.31 1014.61 1014.73 1014.69 1014.57 1015.11 1015.06 1015.14 1015.32 1015.50 1015.48 1015.17 1014.98 1014.62 1013.72 1012.84 1011.64 1010.36 1008.88 1007.43 1006.08 1005.04 1004.16 1003.45 1003.40 1003.27 1003.25 1003.52 1003.46 1003.31 1002.93 1002.81 1002.86 1003.04 1003.36 1003.64 1003.48
1011.65 1012.24 1012.66 1013.24 1013.66 1013.86 1014.10 1014.26 1014.40 1014.62 1014.64 1014.98 1015.00 1015.09 1015.09 1015.26 1015.19 1014.96 1014.66 1014.18 1013.32 1012.26 1011.15 1009.67 1007.88 1006.50 1005.27 1004.02 1003.04 1002.16 1001.93 1001.96 1002.07 1002.28 1002.28 1002.34 1002.48 1001.72 1001.86 1002.04 1002.24 1002.37 1002.33
1011.54 1012.20 1012.72 1013.07 1013.29 1013.27 1013.78 1014.19 1014.33 1014.36 1014.90 1014.97 1014.98 1014.96 1014.90 1014.81 1014.64 1014.59 1014.17 1013.60 1013.02 1011.77 1010.82 1009.48 1007.83 1006.15 1004.78 1003.43 1001.76 1001.04 1000.74 1000.59 1000.59 1000.84 1000.98 1001.14 1001.51 1001.34 1001.13 1001.14 1001.25 1001.62 1001.81
1011.38 1011.94 1012.31 1012.68 1013.16 1013.10 1013.62 1013.93 1013.92 1014.23 1014.47 1014.57 1014.65 1014.70 1015.01 1014.82 1014.51 1014.40 1013.99 1013.18 1012.47 1011.54 1010.37 1009.20 1007.92 1006.44 1004.47 1002.43 1001.08 1000.42 1000.11 999.63 999.28 999.36 999.57 999.77 1000.19 1000.48 1000.75 1001.00 1001.30 1001.49 1001.38
1010.92 1011.27 1011.72 1012.22 1012.51 1012.72 1013.14 1013.74 1013.76 1013.87 1014.14 1014.21 1014.38 1014.35 1014.55 1014.54 1014.42 1014.38 1013.74 1012.90 1012.57 1011.69 1010.12 1008.97 1007.91 1006.59 1004.70 1003.12 1001.37 1000.37 999.64 998.46 997.72 997.66 998.02 998.81 999.46 999.94 1000.30 1000.56 1000.72 1000.94 1000.94
1010.67 1011.13 1011.66 1012.10 1012.12 1012.41 1012.80 1013.06 1013.22 1013.48 1013.84 1013.92 1014.05 1014.02 1014.42 1014.51 1014.54 1014.21 1013.26 1012.79 1012.81 1011.75 1010.28 1009.37 1008.26 1006.72 1005.14 1003.98 1002.48 1001.10 1000.00 998.40 997.17 997.46 997.79 998.32 998.96 999.49 999.88 1000.06 1000.26 1000.49 1000.57
1010.90 1011.63 1012.37 1012.28 1012.24 1012.23 1012.66 1012.86 1012.92 1012.63 1013.23 1013.46 1013.55 1013.90 1014.22 1014.30 1014.64 1014.13 1013.01 1012.64 1012.57 1011.89 1010.65 1010.04 1009.00 1007.33 1005.80 1004.32 1003.29 1002.13 1000.63 999.44 997.96 997.83 998.37 998.89 999.12 999.48 999.56 999.95 1000.37 1000.52 1000.59
1011.08 1011.50 1011.94 1012.36 1011.54 1011.12 1012.10 1012.05 1012.18 1012.94 1012.94 1013.33 1013.60 1014.03 1014.24 1014.30 1014.31 1013.79 1013.06 1012.68 1012.38 1011.70 1010.87 1010.14 1009.40 1007.93 1006.89 1005.34 1004.62 1003.40 1002.24 1001.54 1000.78 999.58 1000.16 1000.04 1000.34 1000.28 1000.28 1000.68 1001.22 1001.51 1001.61
1010.69 1011.21 1011.40 1011.22 1010.91 1010.95 1011.18 1012.12 1012.33 1012.43 1012.88 1013.18 1013.53 1013.83 1014.40 1014.43 1014.32 1013.74 1013.35 1012.91 1012.33 1011.51 1010.89 1010.10 1009.79 1008.71 1007.71 1007.14 1006.11 1005.10 1004.19 1003.77 1003.22 1002.87 1002.54 1001.86 1001.28 1001.05 1001.33 1001.84 1001.96 1002.08 1002.11
1010.40 1011.12 1010.96 1011.18 1010.95 1011.41 1012.02 1012.40 1012.32 1012.16 1012.43 1012.44 1012.82 1013.46 1014.22 1014.30 1014.10 1013.94 1013.91 1013.30 1012.55 1011.93 1011.28 1010.56 1010.30 1009.33 1008.82 1008.26 1007.56 1006.94 1006.14 1005.40 1004.76 1004.34 1003.82 1003.62 1003.28 1002.94 1002.98 1003.05 1003.14 1003.32 1003.45
1010.41 1010.74 1010.73 1010.87 1011.46 1011.92 1012.27 1012.46 1012.64 1012.43 1012.32 1012.10 1012.57 1013.52 1013.93 1013.93 1013.91 1013.81 1013.72 1013.11 1012.30 1011.85 1011.68 1011.49 1011.44 1010.91 1010.40 1009.86 1009.30 1008.58 1008.05 1007.37 1006.71 1006.25 1005.76 1005.36 1004.94 1004.72 1004.57 1004.42 1004.45 1004.52 1004.63
1009.96 1010.44 1010.86 1011.23 1011.52 1011.81 1012.18 1012.44 1012.71 1012.98 1012.74 1012.57 1013.05 1013.63 1013.67 1013.79 1013.89 1013.96 1013.82 1013.22 1012.65 1012.18 1012.39 1012.41 1012.44 1012.04 1011.62 1011.13 1010.67 1010.19 1009.76 1009.24 1008.38 1007.78 1007.36 1006.99 1006.64 1006.17 1005.84 1005.70 1005.60 1005.47 1005.46
1010.34 1010.58 1010.76 1011.00 1011.26 1011.47 1011.38 1011.61 1012.06 1012.62 1012.80 1013.20 1013.55 1013.55 1013.80 1013.80 1013.64 1014.02 1014.02 1013.37 1013.11 1012.94 1013.23 1013.41 1013.36 1013.06 1012.58 1012.13 1011.75 1011.49 1010.94 1010.43 1009.82 1009.34 1009.05 1008.61 1008.11 1007.68 1007.35 1007.12 1007.01 1006.96 1006.87
1010.22 1010.34 1010.68 1010.81 1010.69 1010.55 1010.68 1011.24 1011.71 1012.27 1012.77 1012.88 1013.07 1013.58 1013.67 1013.79 1013.86 1014.02 1014.03 1013.96 1013.70 1013.78 1013.99 1014.12 1014.08 1013.92 1013.75 1013.29 1012.88 1012.52 1012.18 1011.87 1011.38 1010.89 1010.48 1009.97 1009.41 1008.91 1008.74 1008.55 1008.38 1008.10 1007.91
1010.00 1010.18 1010.22 1010.23 1010.20 1010.47 1010.69 1011.06 1011.60 1012.06 1012.33 1012.56 1012.84 1013.05 1013.35 1013.84 1014.11 1014.05 1014.19 1014.14 1014.10 1014.40 1014.60 1014.80 1014.93 1014.79 1014.53 1014.32 1013.89 1013.54 1013.26 1012.94 1012.47 1012.09 1011.70 1011.18 1010.61 1009.96 1009.80 1009.70 1009.43 1009.16 1009.08
1009.87 1010.02 1010.09 1010.16 1010.28 1010.31 1010.60 1010.76 1011.13 1011.62 1011.94 1012.22 1012.37 1012.61 1012.84 1013.23 1013.92 1014.25 1014.00 1014.30 1014.56 1014.74 1015.04 1015.36 1015.57 1015.54 1015.48 1015.21 1014.79 1014.35 1014.16 1014.17 1013.78 1013.25 1012.77 1012.23 1011.73 1011.10 1010.74 1010.51 1010.30 1010.12 1009.87
1009.81 1010.16 1010.36 1010.33 1010.36 1010.46 1010.46 1010.68 1011.07 1011.48 1011.67 1011.96 1012.56 1013.02 1012.95 1013.53 1014.21 1014.42 1014.14 1014.44 1014.90 1015.18 1015.46 1015.80 1016.06 1016.12 1016.06 1015.78 1015.54 1015.29 1015.12 1014.92 1014.56 1014.21 1013.73 1013.08 1012.51 1011.94 1011.54 1011.32 1011.16 1010.94 1010.72
1009.77 1010.05 1010.28 1010.58 1010.64 1010.71 1010.86 1011.24 1011.49 1011.60 1011.78 1012.21 1012.68 1013.24 1013.73 1014.20 1014.52 1014.45 1014.34 1014.75 1015.34 1015.63 1015.80 1016.12 1016.40 1016.51 1016.44 1016.26 1016.09 1015.94 1015.76 1015.67 1015.50 1015.13 1014.60 1013.98 1013.42 1012.87 1012.43 1012.09 1011.78 1011.61 1011.46
1009.87 1010.06 1010.34 1010.55 1010.72 1010.94 1011.13 1011.38 1011.62 1011.68 1011.81 1012.41 1013.02 1013.59 1014.16 1014.49 1014.66 1014.66 1014.80 1015.20 1015.80 1016.17 1016.30 1016.52 1016.76 1016.86 1016.85 1016.72 1016.51 1016.17 1015.93 1015.71 1015.40 1015.14 1014.72 1014.15 1013.53 1013.04 1012.75 1012.63 1012.44 1012.36 1012.26
1010.14 1010.34 1010.47 1010.62 1010.72 1010.97 1011.06 1011.30 1011.43 1011.58 1012.10 1012.70 1013.45 1014.02 1014.50 1014.67 1014.89 1015.12 1015.32 1015.68 1016.14 1016.48 1016.66 1016.91 1017.09 1017.09 1017.04 1016.90 1016.75 1016.45 1016.11 1015.72 1015.40 1015.04 1014.58 1014.09 1013.86 1013.65 1013.27 1013.11 1013.02 1012.92 1012.63
1010.15 1010.43 1010.65 1010.75 1010.95 1011.09 1011.11 1011.58 1011.73 1012.19 1012.80 1013.50 1014.08 1014.56 1014.92 1015.20 1015.43 1015.60 1015.82 1016.14 1016.46 1016.80 1017.02 1017.27 1017.39 1017.36 1017.27 1017.13 1016.97 1016.60 1016.18 1015.86 1015.57 1015.16 1014.77 1014.37 1014.21 1013.99 1013.72 1013.49 1013.19 1013.09 1012.96
Thickness
5806 5795 5788 5781 5776 5768 5760 5753 5746 5738 5733 5730 5726 5722 5718 5714 5710 5705 5702 5698 5694 5690 5688 5685 5685 5687 5690 5691 5689 5688 5688 5682 5682 5731 5725 5727 5724 5724 5729 5732 5736 5739 5740
5807 5791 5780 5777 5768 5760 5753 5749 5742 5734 5730 5726 5723 5714 5705 5701 5699 5694 5689 5682 5678 5678 5678 5676 5677 5679 5677 5676 5678 5680 5679 5680 5676 5689 5714 5716 5719 5719 5721 5724 5731 5734 5737
5802 5787 5773 5766 5761 5755 5747 5743 5737 5731 5725 5720 5712 5715 5700 5694 5691 5684 5678 5672 5667 5663 5664 5665 5667 5665 5667 5666 5668 5669 5668 5666 5668 5669 5700 5696 5704 5709 5713 5719 5723 5728 5736
5794 5780 5764 5757 5754 5747 5741 5737 5732 5726 5719 5712 5707 5701 5694 5687 5681 5674 5668 5663 5659 5660 5659 5656 5656 5657 5655 5658 5658 5658 5657 5654 5653 5653 5672 5680 5686 5698 5704 5709 5711 5720 5728
5781 5769 5756 5750 5741 5734 5730 5729 5725 5718 5711 5705 5697 5691 5683 5676 5669 5663 5659 5655 5653 5652 5649 5649 5650 5652 5652 5653 5652 5656 5652 5649 5647 5645 5654 5663 5673 5682 5698 5702 5703 5711 5720
5770 5755 5750 5744 5736 5731 5725 5719 5714 5710 5706 5695 5690 5683 5673 5665 5658 5655 5649 5644 5643 5641 5642 5644 5647 5645 5648 5650 5653 5655 5652 5649 5648 5644 5648 5656 5668 5678 5686 5692 5694 5697 5707
5761 5753 5748 5739 5730 5725 5719 5714 5708 5700 5694 5685 5680 5673 5664 5656 5650 5646 5642 5636 5636 5633 5633 5635 5640 5640 5643 5648 5653 5656 5654 5650 5649 5647 5649 5653 5657 5671 5677 5683 5689 5696 5708
5755 5745 5736 5728 5724 5720 5711 5704 5697 5691 5681 5675 5668 5662 5653 5649 5645 5640 5636 5632 5627 5627 5624 5622 5628 5634 5638 5646 5653 5658 5657 5654 5653 5651 5652 5655 5658 5666 5675 5681 5688 5692 5699
5745 5735 5728 5723 5715 5711 5703 5696 5690 5682 5674 5666 5660 5653 5642 5637 5635 5631 5628 5628 5624 5622 5619 5617 5619 5622 5634 5647 5655 5659 5658 5658 5660 5659 5658 5659 5661 5664 5669 5674 5679 5686 5694
5736 5729 5724 5717 5710 5704 5696 5684 5679 5673 5665 5657 5651 5647 5637 5631 5626 5621 5622 5623 5617 5615 5618 5617 5616 5618 5630 5640 5653 5658 5661 5667 5670 5669 5666 5661 5660 5663 5668 5673 5678 5682 5691
5729 5721 5714 5703 5701 5691 5682 5680 5671 5664 5658 5651 5646 5641 5630 5623 5618 5618 5618 5616 5607 5608 5611 5611 5611 5618 5623 5630 5639 5650 5656 5666 5675 5672 5669 5665 5664 5664 5668 5674 5679 5683 5687
5717 5706 5691 5683 5685 5683 5674 5666 5663 5664 5655 5648 5643 5634 5625 5618 5610 5610 5614 5610 5602 5600 5603 5600 5602 5612 5618 5624 5632 5639 5649 5656 5662 5665 5662 5661 5662 5664 5671 5674 5676 5680 5685
5707 5699 5689 5677 5684 5684 5669 5663 5662 5652 5648 5640 5633 5623 5618 5613 5607 5608 5608 5605 5601 5598 5598 5596 5594 5605 5611 5619 5621 5628 5636 5641 5644 5649 5647 5650 5650 5656 5663 5664 5665 5666 5669
5700 5689 5683 5679 5680 5677 5670 5656 5651 5647 5638 5633 5624 5619 5609 5605 5602 5604 5601 5599 5599 5599 5599 5598 5591 5596 5601 5604 5608 5615 5620 5622 5625 5626 5630 5637 5644 5648 5649 5651 5654 5657 5660
5691 5680 5677 5670 5667 5659 5652 5645 5643 5639 5632 5626 5621 5613 5604 5599 5599 5596 5593 5595 5595 5594 5593 5594 5586 5591 5592 5595 5594 5597 5604 5610 5615 5619 5624 5627 5630 5634 5637 5640 5641 5642 5643
5679 5673 5669 5663 5653 5645 5640 5633 5626 5624 5622 5620 5615 5605 5598 5597 5596 5593 5592 5594 5596 5594 5591 5587 5579 5580 5583 5583 5581 5584 5586 5591 5598 5603 5607 5611 5616 5620 5623 5627 5629 5629 5630
5671 5663 5656 5648 5641 5636 5630 5623 5617 5610 5609 5608 5602 5596 5596 5593 5589 5588 5586 5590 5592 5591 5586 5582 5574 5573 5574 5577 5580 5577 5579 5580 5584 5592 5595 5597 5599 5604 5609 5611 5615 5617 5619
5655 5650 5643 5638 5634 5629 5626 5619 5613 5606 5604 5601 5594 5592 5589 5587 5586 5583 5581 5586 5586 5583 5577 5571 5568 5568 5569 5571 5571 5573 5576 5578 5581 5584 5585 5589 5594 5596 5598 5599 5600 5602 5603
5645 5640 5635 5632 5630 5627 5622 5614 5610 5604 5598 5596 5594 5587 5584 5583 5580 5577 5576 5578 5577 5574 5569 5567 5564 5562 5562 5563 5564 5565 5567 5568 5572 5575 5577 5580 5585 5587 5587 5588 5591 5593 5594
5637 5633 5631 5627 5624 5618 5615 5612 5605 5601 5599 5595 5593 5590 5585 5580 5577 5574 5573 5573 5570 5565 5563 5558 5556 5555 5556 5556 5559 5561 5562 5562 5564 5566 5568 5570 5575 5580 5581 5580 5582 5583 5582
5630 5626 5623 5620 5618 5616 5613 5608 5604 5600 5595 5593 5592 5588 5585 5582 5574 5571 5576 5570 5563 5559 5555 5551 5547 5547 5546 5548 5550 5553 5553 5551 5552 5556 5559 5562 5564 5569 5572 5573 5573 5574 5575
5622 5618 5614 5612 5610 5608 5607 5602 5599 5594 5593 5591 5586 5580 5580 5576 5570 5568 5571 5565 5556 5551 5548 5544 5541 5540 5539 5542 5542 5543 5543 5543 5545 5545 5548 5551 5555 5558 5561 5562 5562 5562 5563
5615 5612 5608 5602 5600 5599 5596 5590 5590 5589 5589 5586 5581 5576 5569 5563 5560 5562 5564 5557 5548 5544 5541 5539 5537 5534 5533 5533 5534 5535 5534 5533 5533 5534 5536 5540 5543 5546 5548 5550 5551 5551 5551
5607 5605 5601 5598 5595 5591 5587 5584 5584 5585 5584 5579 5573 5567 5562 5557 5555 5555 5553 5547 5540 5535 5533 5532 5530 5528 5526 5527 5528 5529 5530 5529 5529 5530 5531 5533 5538 5540 5541 5541 5540 5540 5538
5597 5595 5593 5592 5591 5585 5582 5581 5582 5581 5576 5571 5566 5561 5555 5551 5548 5544 5541 5538 5533 5529 5525 5523 5521 5520 5520 5520 5520 5521 5521 5523 5524 5526 5528 5529 5529 5529 5530 5529 5527 5526 5527
5588 5587 5587 5588 5587 5584 5583 5578 5578 5573 5566 5561 5555 5548 5544 5540 5537 5534 5533 5530 5526 5522 5518 5515 5513 5511 5510 5511 5512 5513 5515 5517 5518 5519 5520 5521 5521 5520 5520 5519 5519 5517 5515